This is the latest recevied weather packets stored in our database for station/object KC1ELF. If no packets are shown the sender has not sent any weather packets the latest 1 day(s).
| Time | Temp. | Humidity | Pressure | Rain* | Wind** | Luminosity | Snow |
|---|---|---|---|---|---|---|---|
| 1778025696 | 22.78° C | 45% | 1007 hPa | 0 mm | 1.79 m/s, 257° | - | - |
| 1778025095 | 23.33° C | 45% | 1006.7 hPa | 0 mm | 1.79 m/s, 191° | - | - |
| 1778024495 | 23.33° C | 45% | 1006.7 hPa | 0 mm | 1.79 m/s, 293° | - | - |
| 1778023895 | 23.89° C | 44% | 1006.6 hPa | 0 mm | 1.79 m/s, 243° | - | - |
| 1778023296 | 24.44° C | 42% | 1006.4 hPa | 0 mm | 1.79 m/s, 304° | - | - |
| 1778022696 | 24.44° C | 41% | 1006.3 hPa | 0 mm | 3.58 m/s, 280° | - | - |
| 1778022096 | 25° C | 41% | 1006.1 hPa | 0 mm | 4.02 m/s, 319° | - | - |
| 1778021495 | 25° C | 41% | 1006 hPa | 0 mm | 2.68 m/s, 291° | - | - |
| 1778020895 | 25.56° C | 40% | 1005.9 hPa | 0 mm | 4.47 m/s, 263° | - | - |
| 1778020295 | 25.56° C | 40% | 1005.6 hPa | 0 mm | 4.02 m/s, 317° | - | - |
| 1778019695 | 26.11° C | 39% | 1005.2 hPa | 0 mm | 4.47 m/s, 260° | - | - |
| 1778019096 | 26.11° C | 38% | 1005.1 hPa | 0 mm | 4.02 m/s, 282° | - | - |
| 1778018495 | 26.11° C | 38% | 1005 hPa | 0 mm | 2.68 m/s, 276° | - | - |
| 1778017896 | 26.67° C | 37% | 1005.1 hPa | 0 mm | 4.92 m/s, 246° | - | - |
| 1778017297 | 27.22° C | 37% | 1005 hPa | 0 mm | 3.58 m/s, 237° | - | - |
| 1778016695 | 27.78° C | 36% | 1004.8 hPa | 0 mm | 3.58 m/s, 289° | - | - |
| 1778016096 | 27.78° C | 36% | 1004.8 hPa | 0 mm | 4.02 m/s, 307° | - | - |
| 1778015495 | 27.78° C | 36% | 1004.6 hPa | 0 mm | 4.02 m/s, 295° | - | - |
| 1778014895 | 27.78° C | 35% | 1004.6 hPa | 0 mm | 4.02 m/s, 214° | - | - |
| 1778014295 | 27.78° C | 36% | 1004.6 hPa | 0 mm | 3.58 m/s, 317° | - | - |
| 1778013696 | 28.33° C | 36% | 1004.6 hPa | 0 mm | 1.79 m/s, 95° | - | - |
| 1778013096 | 28.33° C | 36% | 1004.6 hPa | 0 mm | 3.58 m/s, 265° | - | - |
| 1778012495 | 28.33° C | 35% | 1004.8 hPa | 0 mm | 4.02 m/s, 247° | - | - |
| 1778011895 | 28.89° C | 34% | 1004.8 hPa | 0 mm | 5.36 m/s, 343° | - | - |
| 1778011295 | 29.44° C | 35% | 1004.6 hPa | 0 mm | 4.47 m/s, 125° | - | - |
* Rain latest hour (hover to see other rain measurements)
** Current wind speed in m/s (hover to see current wind gust speed)